Find Starlink 34052

NORAD ID: 63874 Int'l Des: 2025-094 Owner: SPXS Country: US Constellation: starlink operational
LEOCIRCULAR

Live-Position

3D-Globus wird geladen...

Über Starlink 34052

Beschreibung wird geladen...

Nächste Überflüge

Passes for default location (London). Set your location on the main map for personalized predictions.

Höhenverlauf

Loading altitude history...

Zweizeiliger Elementsatz

1 63874U 25094L 26107.16702399 .00003146 00000-0 27123-3 0 9993
2 63874 70.0000 137.5666 0004656 263.3711 96.6918 14.98344837 52967
Epoch: 17. Apr. 2026 • Age: 11 hours

Aktueller Status

Höhe 592.4 km
Geschwindigkeit 7.56 km/s
Subsatellitenpunkt -62.09°S, 23.87°E
Startdatum 10. Mai 2025
Alter 0.9 years
Typ internet

Technische Details

Klassifizierung Payload
Masse 575.00 kg
Trockenmasse 530.00 kg
Gesamtmasse 575.00 kg
Länge 0.30 m
Durchmesser 4.10 m
Spannweite 29.00 m
Form Box + pan
Hersteller SPXS
Bus-Typ Starlink V2MO
Phasenstatus In Orbit
Besitzer/Staat SPXS/US

Most Searched